AirNav   Everest Fuels
 
 1704 users online  

39FL Palm Beach Sheriff's Range Heliport
West Palm Beach, Florida, USA

GOING TO WEST PALM BEACH?


FAA INFORMATION EFFECTIVE 10 SEPTEMBER 2020

Location

FAA Identifier: 39FL
Lat/Long: 26-43-01.2330N 080-11-59.1630W
26-43.020550N 080-11.986050W
26.7170092,-80.1997675
(estimated)
Elevation: 20 ft. / 6 m (estimated)
Variation: 03W (1985)
From city: 4 miles W of WEST PALM BEACH, FL
Time zone: UTC -4 (UTC -5 during Standard Time)
Zip code: 33411

Heliport Operations

Heliport use: Private use. Permission required prior to landing
Activation date: 06/1981
Control tower: no
ARTCC: MIAMI CENTER
FSS: MIAMI FLIGHT SERVICE STATION
Attendance: UNATNDD
Wind indicator: no
Segmented circle: no

Heliport Communications

WX ASOS at PBI (6 nm E): 123.75 (561-683-2548)
WX AWOS-3 at F45 (8 nm N): 119.975 (561-630-6932)
WX AWOS-3PT at LNA (10 nm SE): 119.925 (561-964-0308)

Nearby radio navigation aids

VOR radial/distance  VOR name  Freq  Var
PBIr293/6.5PALM BEACH VORTAC115.7003W
PHKr099/26.6PAHOKEE VOR/DME115.4000E
FLLr003/38.6FORT LAUDERDALE VOR/DME114.4006W

 
NDB name  Hdg/Dist  Freq  Var  ID
UNITED153/13.640505WUTX ..- - -..-

Heliport Services

Runway Information

Helipad H1

Dimensions: 550 x 150 ft. / 168 x 46 m
Surface: turf, in fair condition
Latitude: 26-43.020550N
Longitude: 080-11.986050W
Elevation: 20.0 ft.
Traffic pattern: leftleft
Markings: none, in fair condition

Heliport Ownership and Management from official FAA records

Ownership: Publicly-owned
Owner: PALM BEACH COUNTY
3228 GUN CLUB RD
WEST PALM BEACH, FL 33416
Phone 305-793-0300
Manager: COUNTY SHERIFF
3228 GUN CLUB RD
WEST PALM BEACH, FL 33416
Phone 407-688-3660

Additional Remarks

A52-H1 MARKED PLINES SOUTH SW AND EAST; TREES SOUTH AND EAST; POLE WEST OF LANDING AREA.
FOR CD CTC PALM BEACH APCH AT 561-275-1430

Instrument Procedures

There are no published instrument procedures at 39FL.

Some nearby airports with instrument procedures:

KPBI - Palm Beach International Airport (6 nm E)
F45 - North Palm Beach County General Aviation Airport (8 nm N)
KLNA - Palm Beach County Park Airport (10 nm SE)
06FA - William P Gwinn Airport (13 nm NW)
KBCT - Boca Raton Airport (21 nm S)
 
Loc | Ops | Rwys | IFR | FBO | Links
Com | Nav | Svcs | Stats | Notes

Reliance Aviation
AirBoss

 
Area around 39FL (Palm Beach Sheriff's Range Heliport)
 
Road maps at: MapQuest Bing Google
 
Aerial photo
No photo
 
Sectional chart

 
Airport distance calculator
Flying to Palm Beach Sheriff's Range Heliport? Find the distance to fly.

From to 39FL

Sunrise and sunset
Times for 30-Sep-2020
 Local
(UTC-4)
 Zulu
(UTC)
Morning civil twilight06:5110:51
Sunrise07:1411:14
Sunset19:0723:07
Evening civil twilight19:3023:30

Current date and time
Zulu (UTC)  30-Sep-2020 16:08:11
Local (UTC-4)  30-Sep-2020 12:08:11
 
METAR
KPBI 
6nm E 
301553Z 36011KT 10SM FEW018 BKN028 BKN043 29/24 A2997 RMK AO2 SLP149 CB DSNT SW T02940239
KF45 
8nm N 
301550Z AUTO 02011KT 10SM 28/23 A3000 RMK AO2
KLNA 
10nm SE 
301555Z AUTO 02008KT 10SM DZ SCT022 BKN034 OVC075 28/25 A2997 RMK AO2 T02780254 PNO
TAF
KPBI 
6nm E 
301120Z 3012/0112 VRB03KT P6SM VCSH SCT025 BKN050 FM301600 04010KT P6SM VCTS SCT025CB BKN050 FM010100 04005KT P6SM FEW020 SCT060
NOTAMs
Click for the latest NOTAMs
NOTAMs are issued by the DoD/FAA and will open in a separate window not controlled by AirNav.

 

 
 

Would you like to see your business listed on this page?

 If your business provides an interesting product or service to pilots, flight crews, aircraft, or users of the Palm Beach Sheriff's Range Heliport, you should consider listing it here.  To start the listing process, click on the button below
 
Add a business
 

Other Pages about Palm Beach Sheriff's Range Heliport

Update a link
 
Copyright © AirNav, LLC. All rights reserved. Privacy Policy  Contact